Flag for Germany Weather past 2 weeks in Kiel, Schleswig-Holstein, Germany

Now
66 °F

Passing clouds.


Feels Like: 66 °F
Forecast: 48 / 71 °F
Wind: 9 mph from Northwest

Location: Kiel / Holtenau Civilian

Current Time: Aug 27, 2014 at 1:44:56 PM

Latest Report: Aug 27, 2014 at 12:50 PM


Visibility: N/A

Pressure: 30.01 "Hg

Humidity: 49%

Dew point: 46 °F

Location of KielLocation

Historic Weather in Kiel — Graph

°F

Kiel temperature yesterday

Maximum temperature yesterday: 64 °F (at 3:20 PM)
Minimum temperature yesterday: 50 °F (at 8:20 AM)
Average temperature yesterday: 60 °F

Past Weeks' High & Low Weather Summary

 TemperatureHumidityPressure
High72 °F (Aug 13, 4:20 PM)94% (Aug 17, 8:20 AM)29.98 "Hg (Aug 17, 8:20 AM)
Low50 °F (Aug 23, 8:20 AM)41% (Aug 13, 4:50 PM)29.42 "Hg (Aug 18, 10:50 AM)
Average59 °F72%29.78 "Hg
* Reported Aug 12 11:20 AM — Aug 27 11:50 AM, Kiel, Weather by CustomWeather, © 2014

Note: Actual official high and low records may vary slightly from our data, if they occured in-between our weather recording intervals... More about our weather records

Advertising

Kiel weather history for previous 24 hours

 ConditionsComfort  
Time TempWeatherWind HumidityBarometerVisibility
11:50 AM
Aug 27
64 °FPassing clouds.9 mph60%29.98 "HgN/A
11:20 AM63 °FSunny.9 mph64%29.98 "Hg10 mi
10:50 AM63 °FSunny.8 mph64%29.98 "Hg10 mi
10:20 AM63 °FSunny.12 mph59%29.98 "Hg10 mi
9:50 AM61 °FSunny.8 mph68%29.98 "Hg10 mi
9:20 AM59 °FSunny.9 mph72%29.95 "Hg10 mi
8:50 AM57 °FSunny.8 mph82%29.95 "Hg10 mi
8:20 AM54 °FSunny.9 mph88%29.95 "Hg10 mi
7:20 PM
Aug 26
63 °FPassing clouds.9 mph64%29.80 "HgN/A
6:20 PM64 °FScattered clouds.7 mph56%29.77 "HgN/A
4:50 PM64 °FPassing clouds.7 mph52%29.77 "HgN/A
4:20 PM63 °FPassing clouds.6 mph56%29.77 "HgN/A
3:50 PM64 °FPassing clouds.6 mph60%29.77 "HgN/A
3:20 PM64 °FPassing clouds.6 mph56%29.77 "HgN/A
2:50 PM63 °FScattered clouds.7 mph64%29.77 "HgN/A
1:50 PM61 °FScattered clouds.7 mph63%29.77 "HgN/A
1:20 PM61 °FPartly sunny.6 mph59%29.77 "HgN/A
Weather by CustomWeather, © 2014

See weather overviewHow to use our weather pages